Find Kosmos-921

NORAD ID: 10095 Int'l Des: 1977-055 Owner: YUZH Country: SU operational
LEOCIRCULAR

当前视图

正在加载3D地球...

About Kosmos-921

Kosmos-921 (NORAD 10095) is a satellite launched Jun 24, 1977 by YUZH of SU. It operates in LEO, CIRCULAR orbit with a mass of 1800.00 kg.

即将过境

Passes for default location (London). Set your location on the main map for personalized predictions.

高度历史

Loading altitude history...

两行轨道根数

1 10095U 77055A 26194.88646113 .00000416 00000-0 37818-4 0 9990
2 10095 75.8316 139.8538 0036333 273.9852 85.7190 14.96806249658398
Epoch: Jul 13, 2026 • Age: 8 hours

当前状态

高度 577.9 km
远地点 / 近地点 N/A
速度 7.58 km/s
星下点 -70.53°S, 87.61°E
发射日期 Jun 24, 1977
运行时间 49 years
类型 other

技术详情

分类 Payload
质量 1800.00 kg
干质量 1800.00 kg
总质量 1800.00 kg
长度 3.20 m
直径 1.30 m
跨度 3.20 m
形状 Cyl
制造商 YUZH
平台类型 GVM
阶段状态 In Orbit
所有者/国家 YUZH/SU

Most Searched